User: anonymous   Login
Location: Oshawa
(43.9000°N, 78.8670°W)
Time: 17:54:31
(UTC-04:00)
Language:

Envisat - Orbit

View from above orbital plane
View from above orbital plane
View from above satellite
View from above satellite

Ground track
Ground track

The orbit data is extracted from the following two-line orbital elements,

1 27386U 02009A   16126.11861331 -.00000005  00000-0  12154-4 0  9990
2 27386  98.2873 181.0709 0001328  78.7300 281.4042 14.37864223742431
Epoch (UTC): 05 May 2016 02:50:48
Eccentricity: 0.0001328
inclination: 98.2873°
perigee height: 764 km
apogee height: 766 km
right ascension of ascending node: 181.0709°
argument of perigee: 78.7300°
revolutions per day: 14.37864223
mean anomaly at epoch: 281.4042°
orbit number at epoch: 74243

The dashed part of the orbit path shows where the satellite is in the earth's shadow,  

DLR